User: anonymous   Login
Location: Turtle Rock Observatory
(36.6913°N, 81.9708°W)
Time: 21:59:01
(UTC-04:00)
Language:

Lacrosse 5 rocket - Orbit

View from above orbital plane
View from above orbital plane
View from above satellite
View from above satellite

Ground track
Ground track

The orbit data is extracted from the following two-line orbital elements,

1 28647U 05016B   17288.78709305 0.00000900  00000-0  51169-4 0    02
2 28647  56.9975 245.8508 0133004 182.5229 177.4770 15.05148477    07
Epoch (UTC): 15 October 2017 18:53:24
Eccentricity: 0.0133004
inclination: 56.9975°
perigee height: 459 km
apogee height: 643 km
right ascension of ascending node: 245.8508°
argument of perigee: 182.5229°
revolutions per day: 15.05148477
mean anomaly at epoch: 177.4770°
orbit number at epoch: 0

The dashed part of the orbit path shows where the satellite is in the earth's shadow,  

DLR